Volver al catálogo

INTELSAT 602

ActivoComunicacionesGEO
NORAD 20315·PAYLOAD· XX

Lanzado Oct 27, 1989 desde Guiana Space Centre

Loading…

TLE

ActualizadoSource: Space-Track

Época: Sep 13, 2026, 21:07 UTC

1 20315U 89087A   26256.88024860  .00000043  00000-0  00000-0 0  9997
2 20315  14.3698   6.8868 0007033 223.2406 135.2068  0.99004686132195

Sigue INTELSAT 602 en tiempo real con AllMySat

Download on the App Store